GSAT-31

Last updated on Thu Jul 03 2025 00:02:48 GMT+0000 (Coordinated Universal Time)

1 44035U 19007B 25183.56086475 .00000132 00000+0 00000+0 0 9997 2 44035 0.0907 263.9945 0000693 28.2041 238.4468 1.00271363 23460
UTC large
Height (km)
Speed (km/s)
/
Latitude / Longitude
Inclination (degrees)
Orbital Period (minutes)
Azimuth
Elevation
Range (km)
Doppler Factor

Next 0 passes for location: London (51.5072 / 0.1276)

Sorry there are no passes over London.